Elizabethton, TN

10:55 PM EST on December 04, 2016 (GMT -0500)
Elizabethton

Weather History for K0A9 - December, 2013

Change the Weather History Date:

Sunday, December 15, 2013

  Actual Average (KTRI) Record (KTRI)
Temperature  
Mean Temperature 38 °F 38 °F  
Max Temperature 46 °F 48 °F 75 °F (1971)
Min Temperature 30 °F 28 °F 5 °F (2010)
Degree Days  
Heating Degree Days 27 27  
Month to date heating degree days 384  
Since 1 July heating degree days 1270  
Cooling Degree Days 0 0  
Month to date cooling degree days 0  
Year to date cooling degree days 981  
Moisture  
Dew Point 30 °F    
Average Humidity 85    
Maximum Humidity 100    
Minimum Humidity 75    
Precipitation  
Precipitation 0.00 in 0.11 in 0.82 in (1972)
Month to date precipitation 1.71  
Year to date precipitation 39.35  
Snow  
Snow 0.00 in 0.10 in - ()
Month to date snowfall 0.9  
Since 1 July snowfall 1.2  
Snow Depth -    
Sea Level Pressure  
Sea Level Pressure 29.98 in    
Wind  
Wind Speed 8 mph (West)    
Max Wind Speed 15 mph    
Max Gust Speed 20 mph    
Visibility 9 miles    
Events Rain    
T = Trace of Precipitation, MM = Missing Value Source: NWS Daily Summary

Daily Weather History Graph

Daily Weather History Graph

Search for Another Location

Airport or City:

Trip Planner

Search our weather history database for the weather conditions in past years. The results will help you decide how hot, cold, wet, or windy it might be!

Date:

Astronomy

Dec. 15, 2013 Rise Set
Actual Time 7:33 AM EST 5:14 PM EST
Civil Twilight 7:04 AM EST 5:43 PM EST
Nautical Twilight 6:32 AM EST 6:15 PM EST
Astronomical Twilight 6:00 AM EST 6:47 PM EST
Moon 4:16 PM EST (12/15) 5:50 AM EST (12/15)
Length of Visible Light 10h 39m
Length of Day
9h 41m
Waxing Gibbous, 97% of the Moon is Illuminated
Dec 15
Waxing Gibbous
Dec 17
Full
Dec 25
Last Quarter
Jan 1
New
Jan 7
First Quarter

Hourly Weather History & Observations

Time (EST) Temp. Windchill Dew Point Humidity Pressure Visibility Wind Dir Wind Speed Gust Speed Precip Events Conditions
12:15 AM 46.4 °F 42.4 °F 44.6 °F 93% 29.76 in 10.0 mi West 8.1 mph - N/A   Overcast
12:35 AM 46.4 °F 43.5 °F 44.6 °F 93% 29.76 in 7.0 mi WSW 5.8 mph - N/A   Light Drizzle
12:55 AM 46.4 °F 42.9 °F 44.6 °F 93% 29.76 in 2.5 mi WSW 6.9 mph - N/A Rain Light Rain
1:15 AM 46.4 °F 41.5 °F 44.6 °F 93% 29.76 in 3.0 mi WSW 10.4 mph - N/A Rain Light Rain
1:35 AM 44.6 °F 41.4 °F 44.6 °F 100% 29.75 in 4.0 mi WSW 5.8 mph - N/A Rain Light Rain
1:55 AM 44.6 °F 38.8 °F 42.8 °F 93% 29.78 in 4.0 mi West 11.5 mph - N/A Rain Light Rain
2:15 AM 42.8 °F 36.6 °F 41.0 °F 93% 29.79 in 3.0 mi West 11.5 mph - N/A Rain Light Rain
2:35 AM 42.8 °F 38.6 °F 39.2 °F 87% 29.79 in 3.0 mi Variable 6.9 mph - N/A Rain Light Rain
2:55 AM 41.0 °F 36.4 °F 39.2 °F 93% 29.81 in 3.0 mi Variable 6.9 mph - N/A   Light Drizzle
3:15 AM 39.2 °F 33.0 °F 39.2 °F 100% 29.81 in 3.0 mi West 9.2 mph - N/A Rain Light Rain
3:35 AM 39.2 °F 34.2 °F 39.2 °F 100% 29.82 in 2.0 mi Variable 6.9 mph - N/A Rain Light Rain
3:55 AM 39.2 °F 34.2 °F 37.4 °F 93% 29.82 in 2.0 mi Variable 6.9 mph - N/A Rain Light Rain
4:15 AM 37.4 °F 30.3 °F 37.4 °F 100% 29.83 in 3.0 mi West 10.4 mph - N/A   Light Drizzle
4:35 AM 37.4 °F 32.1 °F 37.4 °F 100% 29.83 in 9.0 mi West 6.9 mph - N/A   Overcast
4:55 AM 37.4 °F 32.1 °F 35.6 °F 93% 29.83 in 10.0 mi West 6.9 mph - N/A   Overcast
5:15 AM 37.4 °F 32.1 °F 35.6 °F 93% 29.84 in 10.0 mi West 6.9 mph - N/A   Overcast
5:35 AM 37.4 °F 31.4 °F 33.8 °F 87% 29.86 in 10.0 mi West 8.1 mph - N/A   Overcast
5:55 AM 37.4 °F 32.1 °F 33.8 °F 87% 29.86 in 10.0 mi WSW 6.9 mph - N/A   Overcast
6:15 AM 37.4 °F 32.1 °F 33.8 °F 87% 29.87 in 10.0 mi West 6.9 mph - N/A   Overcast
6:35 AM 35.6 °F 28.6 °F 32.0 °F 87% 29.88 in 10.0 mi WSW 9.2 mph - N/A   Overcast
6:55 AM 35.6 °F 28.6 °F 32.0 °F 87% 29.90 in 8.0 mi West 9.2 mph - N/A   Light Drizzle
7:15 AM 35.6 °F 30.7 °F 32.0 °F 87% 29.92 in 10.0 mi Variable 5.8 mph - N/A   Overcast
7:35 AM 35.6 °F 28.6 °F 30.2 °F 81% 29.92 in 10.0 mi West 9.2 mph - N/A   Overcast
7:55 AM 35.6 °F 30.7 °F 30.2 °F 81% 29.93 in 10.0 mi Variable 5.8 mph - N/A   Overcast
8:15 AM 33.8 °F 26.4 °F 30.2 °F 87% 29.94 in 10.0 mi WSW 9.2 mph - N/A   Overcast
8:35 AM 33.8 °F 27.0 °F 30.2 °F 87% 29.96 in 10.0 mi West 8.1 mph - N/A   Overcast
8:55 AM 33.8 °F 28.6 °F 30.2 °F 87% 29.96 in 10.0 mi West 5.8 mph - N/A   Overcast
9:15 AM 33.8 °F 25.3 °F 28.4 °F 81% 29.97 in 10.0 mi West 11.5 mph 19.6 mph N/A   Overcast
9:35 AM 33.8 °F 27.0 °F 30.2 °F 87% 29.98 in 10.0 mi West 8.1 mph - N/A   Overcast
9:55 AM 33.8 °F 24.8 °F 28.4 °F 81% 29.99 in 10.0 mi West 12.7 mph - N/A   Overcast
10:15 AM 33.8 °F 26.4 °F 28.4 °F 81% 30.00 in 10.0 mi West 9.2 mph - N/A   Overcast
10:35 AM 35.6 °F 29.9 °F 28.4 °F 75% 30.00 in 10.0 mi West 6.9 mph - N/A   Overcast
10:55 AM 33.8 °F 27.0 °F 28.4 °F 81% 30.01 in 10.0 mi West 8.1 mph - N/A   Light Drizzle
11:15 AM 33.8 °F 28.6 °F 28.4 °F 81% 30.01 in 10.0 mi West 5.8 mph - N/A   Overcast
11:35 AM 33.8 °F 27.7 °F 28.4 °F 81% 30.01 in 10.0 mi WNW 6.9 mph - N/A   Overcast
11:55 AM 33.8 °F 27.7 °F 28.4 °F 81% 30.00 in 10.0 mi WNW 6.9 mph - N/A   Light Drizzle
12:15 PM 33.8 °F 27.7 °F 28.4 °F 81% 30.00 in 10.0 mi WSW 6.9 mph - N/A   Overcast
12:35 PM 33.8 °F 27.0 °F 28.4 °F 81% 30.00 in 10.0 mi WSW 8.1 mph - N/A   Overcast
12:55 PM 33.8 °F 24.3 °F 26.6 °F 75% 30.00 in 10.0 mi West 13.8 mph - N/A   Overcast
1:15 PM 33.8 °F 27.0 °F 26.6 °F 75% 30.01 in 10.0 mi West 8.1 mph - N/A   Overcast
1:35 PM 33.8 °F 23.9 °F 26.6 °F 75% 30.01 in 10.0 mi West 15.0 mph - N/A   Overcast
1:55 PM 32.0 °F 22.5 °F 26.6 °F 80% 30.02 in 10.0 mi WSW 12.7 mph - N/A   Overcast
2:15 PM 32.0 °F 23.0 °F 26.6 °F 80% 30.02 in 10.0 mi WSW 11.5 mph - N/A   Overcast
2:35 PM 32.0 °F 24.8 °F 26.6 °F 80% 30.03 in 10.0 mi West 8.1 mph - N/A   Overcast
2:55 PM 30.2 °F 21.3 °F 26.6 °F 86% 30.04 in 10.0 mi West 10.4 mph - N/A   Overcast
3:15 PM 30.2 °F 23.4 °F 26.6 °F 86% 30.04 in 10.0 mi West 6.9 mph - N/A   Overcast
3:35 PM 32.0 °F 24.8 °F 26.6 °F 80% 30.05 in 10.0 mi WSW 8.1 mph - N/A   Overcast
3:55 PM 30.2 °F 23.4 °F 26.6 °F 86% 30.05 in 10.0 mi WSW 6.9 mph - N/A   Overcast
4:15 PM 30.2 °F 22.6 °F 26.6 °F 86% 30.06 in 10.0 mi West 8.1 mph - N/A   Overcast
4:35 PM 30.2 °F 22.6 °F 26.6 °F 86% 30.06 in 10.0 mi WSW 8.1 mph - N/A   Overcast
4:55 PM 30.2 °F 23.4 °F 26.6 °F 86% 30.07 in 10.0 mi WSW 6.9 mph - N/A   Overcast
5:15 PM 30.2 °F 22.6 °F 24.8 °F 80% 30.07 in 10.0 mi WSW 8.1 mph - N/A   Overcast
5:35 PM 30.2 °F 22.6 °F 24.8 °F 80% 30.08 in 10.0 mi WSW 8.1 mph - N/A   Overcast
5:55 PM 30.2 °F 25.4 °F 24.8 °F 80% 30.09 in 10.0 mi WSW 4.6 mph - N/A   Overcast
6:15 PM 30.2 °F 24.3 °F 24.8 °F 80% 30.10 in 10.0 mi West 5.8 mph - N/A   Overcast
6:35 PM 30.2 °F 24.3 °F 24.8 °F 80% 30.10 in 10.0 mi West 5.8 mph - N/A   Overcast
6:55 PM 30.2 °F 24.3 °F 24.8 °F 80% 30.11 in 10.0 mi WSW 5.8 mph - N/A   Overcast
7:15 PM 30.2 °F 23.4 °F 26.6 °F 86% 30.11 in 10.0 mi WSW 6.9 mph - N/A   Overcast
7:35 PM 30.2 °F 22.6 °F 26.6 °F 86% 30.12 in 10.0 mi WSW 8.1 mph - N/A   Overcast
7:55 PM 30.2 °F 24.3 °F 26.6 °F 86% 30.13 in 10.0 mi WSW 5.8 mph - N/A   Overcast
8:15 PM 30.2 °F 21.3 °F 26.6 °F 86% 30.13 in 10.0 mi WSW 10.4 mph - N/A   Overcast
8:35 PM 30.2 °F 21.9 °F 24.8 °F 80% 30.12 in 10.0 mi WSW 9.2 mph - N/A   Overcast
8:55 PM 30.2 °F 24.3 °F 24.8 °F 80% 30.13 in 10.0 mi WSW 5.8 mph - N/A   Overcast
9:15 PM 30.2 °F 25.4 °F 24.8 °F 80% 30.12 in 10.0 mi WSW 4.6 mph - N/A   Overcast
9:35 PM 30.2 °F 22.6 °F 24.8 °F 80% 30.12 in 10.0 mi WSW 8.1 mph - N/A   Overcast
9:55 PM 30.2 °F 22.6 °F 24.8 °F 80% 30.12 in 10.0 mi West 8.1 mph - N/A   Overcast
10:15 PM 30.2 °F 25.4 °F 24.8 °F 80% 30.14 in 10.0 mi West 4.6 mph - N/A   Overcast
10:35 PM 30.2 °F - 24.8 °F 80% 30.13 in 10.0 mi Calm Calm - N/A   Overcast
10:55 PM 30.2 °F 26.7 °F 24.8 °F 80% 30.13 in 10.0 mi WSW 3.5 mph - N/A   Overcast
11:15 PM 30.2 °F 25.4 °F 24.8 °F 80% 30.13 in 10.0 mi West 4.6 mph - N/A   Overcast
11:35 PM 30.2 °F 25.4 °F 24.8 °F 80% 30.12 in 10.0 mi West 4.6 mph - N/A   Overcast
11:55 PM 30.2 °F 26.7 °F 26.6 °F 86% 30.12 in 10.0 mi WSW 3.5 mph - N/A   Overcast